User: anonymous   Login
Location: Arbon
(43.0005°N, 0.7472°E)
Time: 11:15:57
(UTC+00:00)
Language:

Okean 1 Rocket - Orbit

View from above orbital plane
View from above orbital plane
View from above satellite
View from above satellite

Ground track
Ground track

The orbit data is extracted from the following two-line orbital elements,

1 19275U 88056B   20293.65852087 +.00000068 +00000-0 +53653-5 0  9999
2 19275 082.5133 268.7370 0020968 142.8818 217.3852 14.82760701744108
Epoch (UTC): 19 October 2020 15:48:16
Eccentricity: 0.0020968
inclination: 82.5133°
perigee height: 606 km
apogee height: 635 km
right ascension of ascending node: 268.7370°
argument of perigee: 142.8818°
revolutions per day: 14.82760701
mean anomaly at epoch: 217.3852°
orbit number at epoch: 74410

The dashed part of the orbit path shows where the satellite is in the earth's shadow,  

DLR